EN

Hourly Weather La Chaux-de-Fonds

Today, 24 July, Saturday

Time Temperature Precipitation Wind Pressure Humidity
00:00 +18°C° 0 mm 1 mps 676 mmHg 80%
01:00 +18°C° 0 mm 1 mps 676 mmHg 79%
02:00 +18°C° 0 mm 1 mps 676 mmHg 79%
03:00 +18°C° 0 mm 1 mps 676 mmHg 79%
04:00 +18°C° 0 mm 1 mps 677 mmHg 79%
05:00 +18°C° 0 mm 1 mps 677 mmHg 80%
06:00 +18°C° 0 mm 1 mps 677 mmHg 81%
07:00 +20°C° 0 mm 1 mps 677 mmHg 74%
08:00 +21°C° 0 mm 1 mps 677 mmHg 67%
09:00 +23°C° 0 mm 1 mps 678 mmHg 61%
10:00 +24°C° 0 mm 1 mps 677 mmHg 58%
11:00 +25°C° 0 mm 1 mps 677 mmHg 55%
12:00 +25°C° 0 mm 2 mps 677 mmHg 53%
13:00 +24°C° 0.6 mm 2 mps 677 mmHg 61%
14:00 +23°C° 0.6 mm 2 mps 677 mmHg 69%
15:00 +21°C° 0.6 mm 3 mps 677 mmHg 76%
16:00 +21°C° 1 mm 2 mps 677 mmHg 81%
17:00 +20°C° 1 mm 2 mps 676 mmHg 85%
18:00 +20°C° 1 mm 1 mps 676 mmHg 89%
19:00 +18°C° 1.2 mm 1 mps 676 mmHg 90%
20:00 +16°C° 1.2 mm 1 mps 676 mmHg 92%
21:00 +15°C° 1.2 mm 1 mps 676 mmHg 94%
22:00 +15°C° 0.3 mm 1 mps 676 mmHg 94%
23:00 +15°C° 0.3 mm 1 mps 676 mmHg 95%

Tomorrow, 25 July, Sunday

Time Temperature Precipitation Wind Pressure Humidity
00:00 +14°C° 0.3 mm 1 mps 676 mmHg 95%
01:00 +14°C° 0.2 mm 1 mps 676 mmHg 95%
02:00 +14°C° 0.2 mm 1 mps 676 mmHg 96%
03:00 +12°C° 0.2 mm 0 mps 676 mmHg 96%
04:00 +14°C° 0.6 mm 1 mps 676 mmHg 96%
05:00 +14°C° 0.6 mm 1 mps 676 mmHg 96%
06:00 +15°C° 0.6 mm 1 mps 676 mmHg 95%
07:00 +16°C° 0.1 mm 1 mps 676 mmHg 88%
08:00 +19°C° 0.1 mm 1 mps 676 mmHg 80%
09:00 +19°C° 0.1 mm 2 mps 677 mmHg 73%
10:00 +20°C° 0.3 mm 2 mps 677 mmHg 68%
11:00 +21°C° 0.3 mm 2 mps 677 mmHg 63%
12:00 +23°C° 0.3 mm 2 mps 677 mmHg 59%
13:00 +21°C° 0.2 mm 2 mps 677 mmHg 63%
14:00 +21°C° 0.2 mm 2 mps 677 mmHg 68%
15:00 +20°C° 0.2 mm 2 mps 677 mmHg 73%
16:00 +20°C° 0.3 mm 1 mps 677 mmHg 77%
17:00 +20°C° 0.3 mm 1 mps 676 mmHg 82%
18:00 +19°C° 0.3 mm 1 mps 676 mmHg 86%
19:00 +18°C° 0.1 mm 1 mps 676 mmHg 88%
20:00 +16°C° 0.1 mm 1 mps 677 mmHg 90%
21:00 +15°C° 0.1 mm 1 mps 677 mmHg 91%
22:00 +14°C° 0.2 mm 1 mps 677 mmHg 92%
23:00 +14°C° 0.2 mm 1 mps 677 mmHg 93%

Day after tomorrow, 26 July, Monday

Time Temperature Precipitation Wind Pressure Humidity
00:00 +13°C° 0.2 mm 1 mps 677 mmHg 94%
01:00 +13°C° 0.2 mm 1 mps 677 mmHg 94%
02:00 +13°C° 0.2 mm 1 mps 677 mmHg 95%
03:00 +13°C° 0.2 mm 1 mps 677 mmHg 95%
04:00 +13°C° 0 mm 1 mps 677 mmHg 94%
05:00 +14°C° 0 mm 1 mps 678 mmHg 94%
06:00 +14°C° 0 mm 1 mps 678 mmHg 93%
07:00 +16°C° 0 mm 1 mps 678 mmHg 84%
08:00 +18°C° 0 mm 1 mps 679 mmHg 75%
09:00 +19°C° 0 mm 2 mps 679 mmHg 66%
10:00 +19°C° 0.1 mm 2 mps 679 mmHg 64%
11:00 +20°C° 0.1 mm 2 mps 679 mmHg 63%
12:00 +21°C° 0.1 mm 2 mps 679 mmHg 61%
13:00 +20°C° 0.3 mm 2 mps 679 mmHg 62%
14:00 +20°C° 0.3 mm 2 mps 679 mmHg 64%
15:00 +20°C° 0.3 mm 2 mps 679 mmHg 66%
16:00 +19°C° 0.1 mm 2 mps 679 mmHg 72%
17:00 +20°C° 0.1 mm 1 mps 679 mmHg 78%
18:00 +19°C° 0.1 mm 1 mps 679 mmHg 84%
19:00 +16°C° 0 mm 1 mps 679 mmHg 87%
20:00 +15°C° 0 mm 1 mps 679 mmHg 90%
21:00 +14°C° 0 mm 1 mps 679 mmHg 94%
22:00 +14°C° 0 mm 1 mps 679 mmHg 93%
23:00 +14°C° 0 mm 1 mps 679 mmHg 92%

27 July, Tuesday

Time Temperature Precipitation Wind Pressure Humidity
00:00 +13°C° 0 mm 0 mps 679 mmHg 92%
01:00 +13°C° 0 mm 1 mps 679 mmHg 92%
02:00 +13°C° 0 mm 1 mps 678 mmHg 92%
03:00 +12°C° 0 mm 1 mps 678 mmHg 92%
04:00 +13°C° 0.2 mm 1 mps 678 mmHg 92%
05:00 +13°C° 0.2 mm 1 mps 678 mmHg 92%
06:00 +14°C° 0.2 mm 1 mps 678 mmHg 92%
07:00 +15°C° 0.4 mm 1 mps 679 mmHg 90%
08:00 +16°C° 0.4 mm 1 mps 679 mmHg 88%
09:00 +18°C° 0.4 mm 1 mps 679 mmHg 86%
10:00 +18°C° 0.8 mm 1 mps 679 mmHg 86%
11:00 +17°C° 0.8 mm 2 mps 679 mmHg 85%
12:00 +18°C° 0.8 mm 2 mps 679 mmHg 85%
13:00 +18°C° 0.7 mm 2 mps 680 mmHg 84%
14:00 +18°C° 0.7 mm 2 mps 680 mmHg 83%
15:00 +18°C° 0.7 mm 2 mps 680 mmHg 83%
16:00 +17°C° 0.4 mm 2 mps 680 mmHg 85%
17:00 +17°C° 0.4 mm 2 mps 679 mmHg 87%
18:00 +16°C° 0.4 mm 1 mps 679 mmHg 89%
19:00 +15°C° 0.3 mm 2 mps 680 mmHg 90%
20:00 +14°C° 0.3 mm 2 mps 680 mmHg 92%
21:00 +13°C° 0.3 mm 2 mps 680 mmHg 94%
22:00 +13°C° 0 mm 2 mps 680 mmHg 94%
23:00 +13°C° 0 mm 2 mps 680 mmHg 94%

28 July, Wednesday

Time Temperature Precipitation Wind Pressure Humidity
00:00 +12°C° 0 mm 1 mps 680 mmHg 93%
01:00 +12°C° 0 mm 1 mps 680 mmHg 93%
02:00 +12°C° 0 mm 1 mps 679 mmHg 93%
03:00 +11°C° 0 mm 1 mps 679 mmHg 93%
04:00 +12°C° 0 mm 1 mps 679 mmHg 92%
05:00 +13°C° 0 mm 1 mps 680 mmHg 91%
06:00 +13°C° 0 mm 0 mps 680 mmHg 90%
07:00 +16°C° 0 mm 1 mps 680 mmHg 81%
08:00 +18°C° 0 mm 1 mps 681 mmHg 73%
09:00 +20°C° 0 mm 1 mps 681 mmHg 64%
10:00 +21°C° 0 mm 1 mps 681 mmHg 60%
11:00 +21°C° 0 mm 2 mps 681 mmHg 56%
12:00 +23°C° 0 mm 2 mps 681 mmHg 52%
13:00 +21°C° 0.3 mm 2 mps 681 mmHg 61%
14:00 +20°C° 0.3 mm 3 mps 681 mmHg 70%
15:00 +19°C° 0.3 mm 3 mps 681 mmHg 78%
16:00 +18°C° 0.2 mm 3 mps 681 mmHg 82%
17:00 +18°C° 0.2 mm 2 mps 681 mmHg 86%
18:00 +17°C° 0.2 mm 2 mps 681 mmHg 89%
19:00 +16°C° 0 mm 1 mps 680 mmHg 90%
20:00 +15°C° 0 mm 1 mps 680 mmHg 91%
21:00 +14°C° 0 mm 1 mps 680 mmHg 93%
22:00 +13°C° 0 mm 1 mps 680 mmHg 93%
23:00 +13°C° 0 mm 1 mps 680 mmHg 92%

29 July, Thursday

Time Temperature Precipitation Wind Pressure Humidity
00:00 +13°C° 0 mm 1 mps 680 mmHg 92%
01:00 +13°C° 0 mm 1 mps 680 mmHg 92%
02:00 +13°C° 0 mm 0 mps 680 mmHg 91%
03:00 +13°C° 0 mm 0 mps 680 mmHg 90%
04:00 +13°C° 0 mm 0 mps 680 mmHg 90%
05:00 +14°C° 0 mm 0 mps 680 mmHg 90%
06:00 +14°C° 0 mm 0 mps 680 mmHg 90%
07:00 +16°C° 0 mm 0 mps 680 mmHg 83%
08:00 +19°C° 0 mm 1 mps 680 mmHg 77%
09:00 +21°C° 0 mm 1 mps 680 mmHg 70%
10:00 +21°C° 0 mm 1 mps 680 mmHg 69%
11:00 +22°C° 0 mm 1 mps 680 mmHg 67%
12:00 +23°C° 0 mm 2 mps 680 mmHg 66%
13:00 +23°C° 0.1 mm 2 mps 680 mmHg 66%
14:00 +23°C° 0.1 mm 2 mps 680 mmHg 67%
15:00 +23°C° 0.1 mm 2 mps 679 mmHg 68%
16:00 +23°C° 0 mm 1 mps 679 mmHg 73%
17:00 +22°C° 0 mm 1 mps 679 mmHg 79%
18:00 +21°C° 0 mm 1 mps 678 mmHg 84%
19:00 +20°C° 1 mm 1 mps 678 mmHg 88%
20:00 +18°C° 1 mm 1 mps 678 mmHg 91%
21:00 +16°C° 1 mm 2 mps 678 mmHg 95%
22:00 +16°C° 0.4 mm 2 mps 678 mmHg 95%
23:00 +16°C° 0.4 mm 2 mps 678 mmHg 95%
Show more